TimeMDT,TemperatureF,Dew PointF,Humidity,Sea Level PressureIn,VisibilityMPH,Wind Direction,Wind SpeedMPH,Gust SpeedMPH,PrecipitationIn,Events,Conditions,WindDirDegrees,DateUTC
12:56 AM,46.9,28.0,48,30.01,-9999.0,NW,3.5,-,N/A,,Unknown,320,2013-07-23 06:56:00
1:56 AM,44.1,26.1,49,30.03,-9999.0,NW,3.5,-,N/A,,Unknown,320,2013-07-23 07:56:00
2:56 AM,43.0,28.0,56,30.04,-9999.0,Calm,Calm,-,N/A,,Unknown,0,2013-07-23 08:56:00
3:56 AM,42.1,30.9,65,30.06,-9999.0,Calm,Calm,-,N/A,,Unknown,0,2013-07-23 09:56:00
4:56 AM,39.9,28.9,65,30.08,-9999.0,Calm,Calm,-,N/A,,Unknown,0,2013-07-23 10:56:00
5:56 AM,39.0,28.9,67,30.10,-9999.0,Calm,Calm,-,N/A,,Unknown,0,2013-07-23 11:56:00
6:56 AM,39.0,28.9,67,30.12,-9999.0,Calm,Calm,-,N/A,,Unknown,0,2013-07-23 12:56:00
7:56 AM,48.0,36.0,63,30.11,-9999.0,Calm,Calm,-,N/A,,Unknown,0,2013-07-23 13:56:00
8:56 AM,55.9,41.0,57,30.14,-9999.0,SE,3.5,-,N/A,,Unknown,130,2013-07-23 14:56:00
9:56 AM,57.9,42.1,56,30.16,-9999.0,ESE,5.8,-,N/A,,Unknown,110,2013-07-23 15:56:00
10:56 AM,62.1,42.1,48,30.16,-9999.0,ESE,5.8,-,N/A,,Unknown,110,2013-07-23 16:56:00
11:56 AM,66.9,42.1,40,30.15,-9999.0,Variable,3.5,-,N/A,,Unknown,0,2013-07-23 17:56:00
12:56 PM,72.0,39.0,30,30.12,-9999.0,Variable,3.5,-,N/A,,Unknown,0,2013-07-23 18:56:00
1:56 PM,72.0,39.0,30,30.13,-9999.0,Calm,Calm,-,N/A,,Unknown,0,2013-07-23 19:56:00
2:56 PM,72.0,39.9,31,30.13,-9999.0,Variable,4.6,-,N/A,,Unknown,0,2013-07-23 20:56:00
3:56 PM,73.9,33.1,22,30.12,-9999.0,Variable,4.6,-,N/A,,Unknown,0,2013-07-23 21:56:00
4:56 PM,75.9,34.0,22,30.10,-9999.0,Calm,Calm,-,N/A,,Unknown,0,2013-07-23 22:56:00
5:56 PM,75.9,36.0,23,30.10,-9999.0,Calm,Calm,-,N/A,,Unknown,0,2013-07-23 23:56:00
6:56 PM,77.0,23.0,13,30.09,-9999.0,Calm,Calm,-,N/A,,Unknown,0,2013-07-24 00:56:00
7:56 PM,71.1,30.0,22,30.09,-9999.0,Calm,Calm,-,N/A,,Unknown,0,2013-07-24 01:56:00
8:56 PM,60.1,35.1,39,30.13,-9999.0,Calm,Calm,-,N/A,,Unknown,0,2013-07-24 02:56:00
9:56 PM,63.0,28.9,28,30.12,-9999.0,Variable,4.6,-,N/A,,Unknown,0,2013-07-24 03:56:00
10:56 PM,62.1,26.1,25,30.13,-9999.0,Variable,3.5,-,N/A,,Unknown,0,2013-07-24 04:56:00
11:56 PM,55.9,30.9,39,30.13,-9999.0,Calm,Calm,-,N/A,,Unknown,0,2013-07-24 05:56:00